Weather in Manino

Russia / Lipetsk Oblast     52°08′25″N   39°20′21″E
temp.,
°C
wind,
m/s
gust,
m/s
humid.,
%
clouds,
%
prec.,
mm/h
press.,
hPa
HPBL,
m
22 may, sun
sun2200:00+9ese3890100 0.1 1003418
03:00+8e4896100 1.1 1000416
06:00+8ene51097100 3.5 998598
09:00+8ene61296100 6.6 997725
12:00+7ene6996100 5.2 997790
15:00+7e3994100 17.0 999841
18:00+7nnw2496100 3.2 1000218
21:00+7n379187 3.4 1001192
23 may, mon
mon2300:00+4n36925 0.1 1002115
03:00+3n35925 0.1 1003107
06:00+4nnw26905 0.0 1005175
09:00+8nnw46675 0.0 10061087
12:00+9nnw4657100 0.1 10061356
15:00+10nw4655100 0.1 10071543
18:00+10wnw366420 0.1 10071169
21:00+6wsw358027 0.1 100784
24 may, tue
tue2400:00+5w38845 0.0 1008130
03:00+4w38845 0.0 1008129
06:00+5w49784 0.0 1008266
09:00+11wnw46595 0.0 1008629
12:00+14wnw684426 0.0 10091838
15:00+14wnw6743100 0.0 10091849
18:00+12wnw5871100 0.1 1010895
21:00+9w3687100 0.4 1011169
25 may, wed
wed2500:00+8wsw378987 0.1 1011152
03:00+8wnw4892100 1.1 1012376
06:00+7nnw4792100 1.8 1012614
09:00+7nnw2485100 2.5 1013621
12:00+9wnw4680100 0.4 10141125
15:00+10nw467187 0.6 10141172
18:00+9n3572100 0.1 1016503
21:00+6nnw22825 0.1 101715
26 may, thu
thu2600:00+4nnw118347 0.0 101710
03:00+3nne00865 0.0 101810
06:00+5se22802 0.0 101783
09:00+11sse33595 0.0 1016656
12:00+13s566384 0.0 1014734
15:00+14sse4877100 0.0 1011490
18:00+16sw71173100 0.5 1009832
21:00+11ssw61295100 2.0 1008595